Time[GMT],current_speed[cm/s](2m),current_direction[angular_degrees](2m),temperature[C](2m),current_u[cm/s](2m),current_v[cm/s](2m)
2010-06-08 23:00,6.45,125.0,9.54,5.28,-3.71
2010-06-09 00:00,8.21,178.5,9.35,0.22,-8.21
2010-06-09 01:00,13.49,184.8,8.69,-1.13,-13.44
2010-06-09 02:00,27.86,193.3,9.32,-6.39,-27.12
2010-06-09 03:00,33.14,205.9,8.88,-14.49,-29.81
2010-06-09 04:00,45.75,205.9,9.38,-20.00,-41.15
2010-06-09 05:00,35.49,212.9,9.42,-19.30,-29.78
2010-06-09 06:00,25.81,214.7,9.26,-14.70,-21.22
2010-06-09 07:00,17.30,228.8,9.10,-13.01,-11.40
2010-06-09 08:00,12.32,256.2,9.04,-11.96,-2.94
2010-06-09 09:00,3.52,314.6,9.01,-2.51,2.47
2010-06-09 10:00,13.79,344.4,8.66,-3.70,13.28
2010-06-09 11:00,9.09,21.3,8.72,3.31,8.47
2010-06-09 12:00,5.87,347.6,8.56,-1.26,5.73
2010-06-09 13:00,6.75,202.4,8.56,-2.57,-6.24
2010-06-09 14:00,18.77,192.6,8.72,-4.08,-18.32
2010-06-09 15:00,33.44,198.5,8.63,-10.63,-31.70
2010-06-09 16:00,29.33,221.0,8.40,-19.26,-22.12
2010-06-09 17:00,29.62,246.7,9.26,-27.21,-11.72
2010-06-09 18:00,19.06,236.9,8.97,-15.96,-10.42
2010-06-09 19:00,16.42,120.8,9.26,14.10,-8.42
2010-06-09 20:00,9.68,145.1,9.57,5.54,-7.94
2010-06-09 21:00,27.28,110.3,9.82,25.59,-9.46
2010-06-09 22:00,13.20,115.6,9.95,11.91,-5.69
2010-06-09 23:00,13.49,128.6,9.86,10.55,-8.41
2010-06-10 00:00,8.21,206.6,9.76,-3.68,-7.34
2010-06-10 01:00,15.25,205.9,9.82,-6.67,-13.72
2010-06-10 02:00,24.64,208.7,9.54,-11.84,-21.60
2010-06-10 03:00,39.60,219.6,9.29,-25.26,-30.50
2010-06-10 04:00,48.69,214.4,9.79,-27.48,-40.19
2010-06-10 05:00,44.87,214.7,9.48,-25.55,-36.89
2010-06-10 06:00,28.74,211.9,9.38,-15.19,-24.40
2010-06-10 07:00,16.72,188.3,9.29,-2.42,-16.54
2010-06-10 08:00,8.51,147.6,9.23,4.56,-7.18
2010-06-10 09:00,10.27,141.9,9.07,6.33,-8.08
2010-06-10 10:00,9.97,52.6,9.01,7.92,6.05
2010-06-10 11:00,7.33,28.7,9.16,3.52,6.43
2010-06-10 12:00,1.17,228.8,9.23,-0.88,-0.77
2010-06-10 13:00,4.11,271.7,9.13,-4.10,0.12
2010-06-10 14:00,8.21,228.1,9.13,-6.11,-5.49
2010-06-10 15:00,22.58,212.6,8.85,-12.17,-19.03
2010-06-10 16:00,31.38,210.8,8.91,-16.09,-26.95
2010-06-10 17:00,36.66,199.9,9.01,-12.50,-34.46
2010-06-10 18:00,32.85,212.6,9.13,-17.70,-27.67
2010-06-10 19:00,31.97,207.0,9.57,-14.50,-28.49
2010-06-10 20:00,14.66,240.4,8.56,-12.75,-7.25
2010-06-10 21:00,12.03,161.3,9.10,3.86,-11.39
2010-06-10 22:00,21.41,299.1,9.70,-18.71,10.41
2010-06-10 23:00,22.88,338.5,9.26,-8.40,21.28
2010-06-11 00:00,25.22,335.3,9.07,-10.54,22.92
2010-06-11 01:00,24.05,319.8,8.97,-15.51,18.38
2010-06-11 02:00,17.30,271.3,8.88,-17.30,0.40
2010-06-11 03:00,32.26,261.1,9.16,-31.88,-4.98
2010-06-11 04:00,37.25,256.2,9.16,-36.17,-8.89
2010-06-11 05:00,32.56,245.6,9.45,-29.66,-13.42
2010-06-11 06:00,39.60,249.2,9.19,-37.01,-14.08
2010-06-11 07:00,32.56,248.8,8.56,-30.36,-11.77
2010-06-11 08:00,30.21,255.5,7.83,-29.25,-7.57
2010-06-11 09:00,18.77,279.4,7.83,-18.52,3.07
2010-06-11 10:00,14.37,307.9,7.96,-11.34,8.82
2010-06-11 11:00,9.68,54.4,8.40,7.87,5.64
2010-06-11 12:00,4.69,74.4,8.72,4.52,1.26
2010-06-11 13:00,3.52,215.1,8.72,-2.02,-2.88
2010-06-11 14:00,12.03,165.8,8.94,2.94,-11.66
2010-06-11 15:00,28.45,224.6,8.72,-19.96,-20.27
2010-06-11 16:00,36.66,247.8,9.86,-33.93,-13.88
2010-06-11 17:00,35.78,231.6,10.08,-28.04,-22.23
2010-06-11 18:00,43.41,235.8,9.10,-35.90,-24.40
2010-06-11 19:00,27.86,218.9,9.35,-17.51,-21.68
2010-06-11 20:00,24.93,228.4,9.32,-18.65,-16.55
2010-06-11 21:00,19.65,220.0,9.23,-12.63,-15.06
2010-06-11 22:00,13.49,236.2,9.35,-11.21,-7.51
2010-06-11 23:00,15.84,87.8,9.13,15.83,0.61
2010-06-12 00:00,7.92,88.1,9.16,7.91,0.26
2010-06-12 01:00,8.80,117.0,9.04,7.84,-3.99
2010-06-12 02:00,13.79,197.5,8.94,-4.14,-13.15
2010-06-12 03:00,22.88,197.8,8.69,-7.01,-21.78
2010-06-12 04:00,37.54,188.7,8.75,-5.67,-37.11
2010-06-12 05:00,45.46,214.4,8.25,-25.66,-37.53
2010-06-12 06:00,46.34,200.6,8.59,-16.34,-43.37
2010-06-12 07:00,47.51,198.5,8.91,-15.10,-45.05
2010-06-12 08:00,46.34,190.1,9.23,-8.12,-45.62
2010-06-12 09:00,30.21,198.9,8.91,-9.78,-28.58
2010-06-12 10:00,21.70,190.1,9.13,-3.80,-21.37
2010-06-12 11:00,16.42,255.8,9.10,-15.93,-4.02
2010-06-12 12:00,7.92,260.8,9.19,-7.82,-1.27
2010-06-12 13:00,12.91,275.5,9.16,-12.85,1.24
2010-06-12 14:00,13.79,250.9,9.35,-13.03,-4.51
2010-06-12 15:00,22.58,239.7,9.10,-19.49,-11.40
2010-06-12 16:00,36.66,244.2,9.42,-33.02,-15.93
2010-06-12 17:00,34.90,244.2,9.01,-31.43,-15.17
2010-06-12 18:00,39.30,229.5,9.01,-29.87,-25.54
2010-06-12 19:00,31.09,214.4,9.04,-17.55,-25.67
2010-06-12 20:00,34.02,218.2,8.85,-21.05,-26.73
2010-06-12 21:00,31.97,194.7,8.44,-8.09,-30.93
2010-06-12 22:00,19.06,176.0,8.53,1.32,-19.02
2010-06-12 23:00,17.89,147.9,9.13,9.51,-15.16
2010-06-13 00:00,20.24,108.9,9.38,19.15,-6.55
2010-06-13 01:00,12.32,174.6,9.10,1.15,-12.26
2010-06-13 02:00,19.36,188.3,9.01,-2.81,-19.15
2010-06-13 03:00,28.45,189.7,9.07,-4.82,-28.04
2010-06-13 04:00,40.18,198.5,9.01,-12.77,-38.10
2010-06-13 05:00,53.38,202.4,8.82,-20.34,-49.35
2010-06-13 06:00,52.79,201.3,9.16,-19.22,-49.17
2010-06-13 07:00,57.78,203.1,9.38,-22.67,-53.15
2010-06-13 08:00,56.61,197.1,9.32,-16.67,-54.10
2010-06-13 09:00,45.46,204.2,9.42,-18.61,-41.48
2010-06-13 10:00,34.61,202.4,9.51,-13.19,-32.00
2010-06-13 11:00,22.29,210.8,9.54,-11.43,-19.14
2010-06-13 12:00,12.32,244.6,9.48,-11.13,-5.29
2010-06-13 13:00,6.16,274.1,9.42,-6.14,0.44
2010-06-13 14:00,8.80,121.2,9.60,7.53,-4.56
2010-06-13 15:00,9.68,167.6,9.45,2.08,-9.45
2010-06-13 16:00,24.34,215.4,9.29,-14.11,-19.84
2010-06-13 17:00,33.73,204.5,9.32,-13.99,-30.69
2010-06-13 18:00,39.30,208.7,9.10,-18.89,-34.46
2010-06-13 19:00,35.20,197.5,8.40,-10.57,-33.57
2010-06-13 20:00,42.53,187.6,9.07,-5.65,-42.15
2010-06-13 21:00,36.66,183.8,8.78,-2.41,-36.58
2010-06-13 22:00,30.80,183.1,8.85,-1.65,-30.75
2010-06-13 23:00,36.08,189.0,9.42,-5.67,-35.63
2010-06-14 00:00,25.81,195.4,9.29,-6.84,-24.89
2010-06-14 01:00,22.88,230.9,9.29,-17.75,-14.43
2010-06-14 02:00,20.24,252.3,8.97,-19.28,-6.14
2010-06-14 03:00,9.09,250.6,8.91,-8.57,-3.02
2010-06-14 04:00,24.05,230.2,8.31,-18.47,-15.40
2010-06-14 05:00,34.90,204.2,8.47,-14.28,-31.85
2010-06-14 06:00,39.30,207.7,8.02,-18.25,-34.81
2010-06-14 07:00,36.96,203.8,8.09,-14.92,-33.81
2010-06-14 08:00,34.32,219.6,9.10,-21.89,-26.43
2010-06-14 09:00,29.04,223.1,8.85,-19.86,-21.19
2010-06-14 10:00,34.61,214.0,8.82,-19.36,-28.69
2010-06-14 11:00,22.00,200.6,8.50,-7.76,-20.59
2010-06-14 12:00,15.84,201.7,8.72,-5.86,-14.72
2010-06-14 13:00,11.73,225.6,8.47,-8.38,-8.21
2010-06-14 14:00,11.73,265.0,8.59,-11.69,-1.03
2010-06-14 15:00,10.85,242.1,8.69,-9.59,-5.07
2010-06-14 16:00,17.30,239.0,8.75,-14.83,-8.92
2010-06-14 17:00,27.57,213.7,8.69,-15.28,-22.95
2010-06-14 18:00,46.34,207.0,9.23,-21.02,-41.30
2010-06-14 19:00,47.22,199.6,8.78,-15.83,-44.49
2010-06-14 20:00,55.73,188.3,9.16,-8.08,-55.14
2010-06-14 21:00,63.65,180.6,9.26,-0.67,-63.64
2010-06-14 22:00,56.90,177.8,9.35,2.19,-56.86
2010-06-14 23:00,56.31,185.2,9.57,-5.08,-56.08
2010-06-15 00:00,39.89,197.1,9.19,-11.75,-38.12
2010-06-15 01:00,34.90,198.2,9.26,-10.89,-33.16
2010-06-15 02:00,26.10,212.2,9.10,-13.93,-22.08
2010-06-15 03:00,23.17,258.7,8.72,-22.72,-4.56
2010-06-15 04:00,17.30,276.2,9.01,-17.20,1.88
2010-06-15 05:00,4.99,229.8,9.10,-3.81,-3.22
2010-06-15 06:00,22.00,187.3,9.13,-2.79,-21.82
2010-06-15 07:00,38.13,207.0,8.91,-17.29,-33.98
2010-06-15 08:00,54.26,192.6,8.56,-11.80,-52.96
2010-06-15 09:00,39.01,197.8,8.47,-11.94,-37.14
2010-06-15 10:00,40.77,213.3,8.21,-22.38,-34.07
2010-06-15 11:00,31.68,208.0,8.25,-14.88,-27.96
2010-06-15 12:00,19.94,222.1,8.28,-13.37,-14.80
2010-06-15 13:00,15.84,251.3,8.44,-15.00,-5.08
2010-06-15 14:00,16.42,301.9,8.47,-13.94,8.68
2010-06-15 15:00,23.46,324.1,8.53,-13.77,19.00
2010-06-15 16:00,16.13,340.6,8.44,-5.36,15.21
2010-06-15 17:00,6.16,303.7,8.63,-5.13,3.41
2010-06-15 18:00,18.48,233.0,9.01,-14.76,-11.12
2010-06-15 19:00,35.78,214.7,9.13,-20.37,-29.42
2010-06-15 20:00,41.94,205.9,9.19,-18.33,-37.72
2010-06-15 21:00,37.25,202.8,9.04,-14.41,-34.35
2010-06-15 22:00,44.58,206.3,8.72,-19.73,-39.98
2010-06-15 23:00,36.96,213.7,9.13,-20.48,-30.76
2010-06-16 00:00,21.70,217.9,8.53,-13.32,-17.13
2010-06-16 01:00,12.91,219.6,8.56,-8.23,-9.94
2010-06-16 02:00,12.91,275.2,8.97,-12.85,1.17
2010-06-16 03:00,13.79,318.4,8.15,-9.15,10.31
2010-06-16 04:00,3.23,314.2,8.12,-2.31,2.25
2010-06-16 05:00,13.49,264.6,8.06,-13.43,-1.26
2010-06-16 06:00,17.01,219.3,8.25,-10.77,-13.17
2010-06-16 07:00,32.85,214.7,8.40,-18.70,-27.00
2010-06-16 08:00,37.84,207.7,8.59,-17.57,-33.51
2010-06-16 09:00,41.65,226.3,8.47,-30.12,-28.77
2010-06-16 10:00,36.08,224.9,8.40,-25.47,-25.55
2010-06-16 11:00,21.70,216.1,8.40,-12.79,-17.53
2010-06-16 12:00,14.96,217.2,8.25,-9.04,-11.92
2010-06-16 13:00,6.16,162.7,8.28,1.83,-5.88
2010-06-16 14:00,6.16,138.4,8.66,4.09,-4.61
2010-06-16 15:00,2.05,50.9,8.15,1.59,1.30
2010-06-16 16:00,2.64,62.5,8.21,2.34,1.22
2010-06-16 17:00,4.11,225.3,8.09,-2.92,-2.89
2010-06-16 18:00,18.77,160.9,8.85,6.14,-17.74
2010-06-16 19:00,29.04,192.6,8.66,-6.31,-28.34
2010-06-16 20:00,45.17,197.8,8.50,-13.83,-43.00
2010-06-16 21:00,48.69,205.9,8.69,-21.28,-43.79
2010-06-16 22:00,43.12,195.4,9.01,-11.43,-41.57
2010-06-16 23:00,45.46,193.3,8.88,-10.43,-44.25
2010-06-17 00:00,46.34,208.4,8.88,-22.03,-40.77
2010-06-17 01:00,34.90,213.3,7.83,-19.16,-29.17
2010-06-17 02:00,25.22,218.9,8.53,-15.85,-19.62
2010-06-17 03:00,18.18,266.7,9.01,-18.16,-1.03
2010-06-17 04:00,23.46,306.8,9.10,-18.78,14.06
2010-06-17 05:00,7.63,234.4,8.53,-6.20,-4.44
2010-06-17 06:00,7.04,266.7,9.07,-7.03,-0.40
2010-06-17 07:00,19.36,219.3,9.13,-12.26,-14.98
2010-06-17 08:00,40.18,215.8,9.04,-23.48,-32.61
2010-06-17 09:00,50.45,196.8,9.01,-14.56,-48.30
2010-06-17 10:00,50.45,196.1,9.01,-13.97,-48.48
2010-06-17 11:00,53.38,186.9,9.19,-6.44,-52.99
2010-06-17 12:00,39.89,204.9,9.16,-16.77,-36.19
2010-06-17 13:00,32.26,198.2,9.10,-10.07,-30.65
2010-06-17 14:00,34.32,200.6,9.35,-12.10,-32.11
2010-06-17 15:00,25.81,221.0,9.10,-16.95,-19.47
2010-06-17 16:00,26.69,239.3,9.16,-22.95,-13.62
2010-06-17 17:00,23.17,254.4,9.26,-22.32,-6.22
2010-06-17 18:00,22.00,255.1,9.26,-21.26,-5.64
2010-06-17 19:00,21.41,222.4,9.26,-14.45,-15.80
2010-06-17 20:00,36.37,215.8,9.32,-21.26,-29.51
2010-06-17 21:00,39.60,224.2,9.13,-27.60,-28.39
2010-06-17 22:00,44.29,205.6,9.16,-19.11,-39.95
2010-06-17 23:00,44.29,199.9,9.04,-15.10,-41.63
2010-06-18 00:00,35.49,194.7,8.91,-8.99,-34.33
2010-06-18 01:00,34.02,211.9,9.10,-17.98,-28.89
2010-06-18 02:00,34.02,205.9,9.13,-14.87,-30.60
2010-06-18 03:00,28.45,230.5,9.04,-21.96,-18.09
2010-06-18 04:00,23.76,259.0,8.97,-23.32,-4.53
2010-06-18 05:00,7.33,307.9,8.91,-5.79,4.50
2010-06-18 06:00,10.85,313.9,8.85,-7.82,7.52
2010-06-18 07:00,10.56,281.2,8.85,-10.36,2.04
2010-06-18 08:00,18.18,208.4,8.75,-8.64,-16.00
2010-06-18 09:00,33.44,193.6,8.69,-7.87,-32.50
2010-06-18 10:00,45.17,191.9,8.69,-9.28,-44.21
2010-06-18 11:00,49.86,195.4,8.69,-13.22,-48.08
2010-06-18 12:00,41.36,209.4,8.69,-20.32,-36.02
2010-06-18 13:00,34.90,201.7,8.88,-12.90,-32.43
2010-06-18 14:00,36.66,212.2,8.82,-19.56,-31.01
2010-06-18 15:00,29.04,215.4,8.88,-16.82,-23.67
2010-06-18 16:00,16.72,218.6,8.85,-10.42,-13.07
2010-06-18 17:00,16.72,270.3,8.82,-16.72,0.08
2010-06-18 18:00,20.53,265.0,8.85,-20.45,-1.79
2010-06-18 19:00,10.27,289.2,9.60,-9.69,3.38
2010-06-18 20:00,14.37,252.3,9.29,-13.69,-4.36
2010-06-18 21:00,29.92,214.4,9.70,-16.88,-24.70
2010-06-18 22:00,40.77,199.6,9.64,-13.67,-38.41
2010-06-18 23:00,43.99,203.8,9.51,-17.76,-40.25
2010-06-19 00:00,48.69,195.7,9.98,-13.19,-46.87
2010-06-19 01:00,43.12,200.3,9.54,-14.95,-40.44
2010-06-19 02:00,38.13,198.5,9.76,-12.12,-36.15
2010-06-19 03:00,41.36,167.2,10.01,9.13,-40.33
2010-06-19 04:00,17.01,234.0,9.13,-13.77,-9.99
2010-06-19 05:00,13.79,230.5,9.64,-10.64,-8.76
2010-06-19 06:00,12.61,243.9,9.38,-11.32,-5.55
2010-06-19 07:00,17.89,249.5,9.26,-16.76,-6.26
2010-06-19 08:00,21.12,247.1,9.10,-19.45,-8.23
2010-06-19 09:00,32.26,214.7,9.64,-18.37,-26.52
2010-06-19 10:00,39.89,215.1,8.69,-22.91,-32.65
2010-06-19 11:00,47.22,209.1,8.75,-22.95,-41.27
2010-06-19 12:00,45.75,216.1,8.44,-26.97,-36.96
2010-06-19 13:00,40.77,220.0,8.75,-26.20,-31.24
2010-06-19 14:00,29.62,218.2,8.28,-18.33,-23.27
2010-06-19 15:00,15.25,199.9,8.21,-5.20,-14.34
2010-06-19 16:00,9.09,212.9,7.96,-4.95,-7.63
2010-06-19 17:00,2.93,145.8,8.44,1.65,-2.43
2010-06-19 18:00,6.45,44.2,9.10,4.50,4.63
2010-06-19 19:00,19.94,42.4,9.95,13.45,14.72
2010-06-19 20:00,24.34,72.7,10.58,23.24,7.26
2010-06-19 21:00,17.89,111.7,10.11,16.62,-6.61
2010-06-19 22:00,22.88,159.2,9.82,8.14,-21.38
2010-06-19 23:00,31.38,187.3,8.85,-3.98,-31.13
2010-06-20 00:00,40.77,186.6,9.38,-4.67,-40.50
2010-06-20 01:00,35.20,191.5,9.13,-7.02,-34.49
2010-06-20 02:00,29.62,191.9,9.35,-6.08,-28.99
2010-06-20 03:00,24.64,174.6,9.10,2.31,-24.53
2010-06-20 04:00,23.76,151.8,9.38,11.24,-20.93
2010-06-20 05:00,20.53,154.6,9.92,8.81,-18.54
2010-06-20 06:00,11.15,184.1,9.79,-0.80,-11.12
2010-06-20 07:00,6.75,127.5,9.76,5.35,-4.11
2010-06-20 08:00,1.76,67.4,9.73,1.62,0.68
2010-06-20 09:00,6.16,215.8,9.67,-3.60,-5.00
2010-06-20 10:00,22.88,198.5,9.76,-7.27,-21.69
2010-06-20 11:00,34.02,199.2,9.79,-11.21,-32.12
2010-06-20 12:00,43.99,208.0,10.04,-20.67,-38.84
2010-06-20 13:00,43.12,206.6,9.86,-19.32,-38.54
2010-06-20 14:00,38.72,200.6,9.73,-13.65,-36.23
2010-06-20 15:00,39.30,198.2,9.82,-12.26,-37.34
2010-06-20 16:00,24.05,213.7,9.76,-13.33,-20.02
2010-06-20 17:00,12.61,243.9,9.35,-11.32,-5.55
2010-06-20 18:00,13.79,301.6,10.14,-11.75,7.21
2010-06-20 19:00,21.70,357.4,10.48,-0.98,21.68
2010-06-20 20:00,24.64,33.6,10.33,13.65,20.51
2010-06-20 21:00,12.61,94.1,10.58,12.58,-0.90
2010-06-20 22:00,10.27,217.9,9.86,-6.30,-8.10
2010-06-20 23:00,38.42,195.0,9.92,-9.96,-37.11
2010-06-21 00:00,43.70,192.9,9.23,-9.76,-42.60
2010-06-21 01:00,50.74,191.2,9.23,-9.81,-49.78
2010-06-21 02:00,45.17,193.6,9.16,-10.63,-43.90
2010-06-21 03:00,51.91,192.6,10.30,-11.29,-50.67
2010-06-21 04:00,46.05,192.9,10.17,-10.29,-44.88
2010-06-21 05:00,28.16,199.9,10.11,-9.60,-26.47
2010-06-21 06:00,26.10,235.5,10.36,-21.50,-14.80
2010-06-21 07:00,16.13,240.0,10.23,-13.97,-8.06
2010-06-21 08:00,27.86,300.5,10.23,-24.01,14.14
2010-06-21 09:00,29.92,324.1,9.26,-17.56,24.22
2010-06-21 10:00,22.58,317.7,9.70,-15.19,16.71
2010-06-21 11:00,9.09,274.5,9.57,-9.06,0.71
2010-06-21 12:00,18.18,194.3,9.26,-4.50,-17.62
2010-06-21 13:00,25.81,191.2,8.66,-4.99,-25.32
2010-06-21 14:00,36.08,175.7,8.88,2.72,-35.97
2010-06-21 15:00,36.96,176.7,8.53,2.10,-36.90
2010-06-21 16:00,40.18,183.4,9.45,-2.39,-40.11
2010-06-21 17:00,29.62,186.6,9.82,-3.39,-29.43
2010-06-21 18:00,26.98,181.0,9.60,-0.45,-26.98
2010-06-21 19:00,12.61,170.4,9.51,2.10,-12.44
2010-06-21 20:00,3.81,148.6,10.58,1.99,-3.25
2010-06-21 21:00,8.21,160.2,10.55,2.78,-7.73
2010-06-21 22:00,9.97,275.5,10.52,-9.93,0.96
2010-06-21 23:00,20.82,223.8,10.30,-14.43,-15.02
2010-06-22 00:00,29.92,210.8,10.36,-15.34,-25.69
2010-06-22 01:00,50.74,205.6,10.17,-21.90,-45.77
2010-06-22 02:00,46.63,194.3,10.36,-11.53,-45.19
2010-06-22 03:00,48.10,196.4,10.20,-13.60,-46.14
2010-06-22 04:00,44.58,201.0,10.04,-15.97,-41.62
2010-06-22 05:00,32.26,209.8,10.20,-16.03,-28.00
2010-06-22 06:00,24.05,202.8,10.23,-9.30,-22.18
2010-06-22 07:00,19.94,200.3,10.36,-6.92,-18.71
2010-06-22 08:00,13.79,246.4,10.17,-12.63,-5.53
2010-06-22 09:00,7.92,311.4,10.04,-5.94,5.24
2010-06-22 10:00,6.16,274.1,9.95,-6.14,0.44
2010-06-22 11:00,7.63,231.9,9.86,-6.00,-4.70
2010-06-22 12:00,24.64,215.8,9.86,-14.40,-19.99
2010-06-22 13:00,32.56,213.3,9.64,-17.87,-27.21
2010-06-22 14:00,37.54,216.1,9.45,-22.13,-30.33
2010-06-22 15:00,44.29,212.9,9.19,-24.09,-37.16
2010-06-22 16:00,42.24,214.4,8.91,-23.83,-34.87
2010-06-22 17:00,33.73,217.5,9.01,-20.54,-26.75
2010-06-22 18:00,22.58,220.0,9.07,-14.51,-17.31
2010-06-22 19:00,17.89,226.3,8.78,-12.94,-12.36
2010-06-22 20:00,9.39,248.1,9.04,-8.71,-3.50
2010-06-22 21:00,14.96,300.5,10.08,-12.89,7.59
2010-06-22 22:00,35.78,325.8,9.82,-20.11,29.60
2010-06-22 23:00,20.53,12.5,9.98,4.46,20.04
2010-06-23 00:00,1.76,177.1,9.70,0.09,-1.76
2010-06-23 01:00,17.01,205.2,9.45,-7.25,-15.39
2010-06-23 02:00,38.42,203.8,9.35,-15.51,-35.15
2010-06-23 03:00,45.46,199.2,9.35,-14.98,-42.92
2010-06-23 04:00,39.60,205.6,9.60,-17.09,-35.72
2010-06-23 05:00,39.01,208.7,10.11,-18.75,-34.21
2010-06-23 06:00,31.09,218.6,9.76,-19.39,-24.31
2010-06-23 07:00,15.54,196.4,9.01,-4.40,-14.91
2010-06-23 08:00,12.32,155.6,8.28,5.08,-11.22
2010-06-23 09:00,15.25,233.7,9.60,-12.29,-9.03
2010-06-23 10:00,34.02,318.8,9.42,-22.42,25.59
2010-06-23 11:00,29.62,339.2,9.86,-10.53,27.69
2010-06-23 12:00,22.88,330.0,9.45,-11.43,19.82
2010-06-23 13:00,11.44,275.9,9.57,-11.38,1.17
2010-06-23 14:00,23.46,228.1,9.42,-17.46,-15.68
2010-06-23 15:00,33.14,215.8,9.51,-19.37,-26.89
2010-06-23 16:00,39.01,203.8,9.51,-15.75,-35.69
2010-06-23 17:00,36.66,209.8,9.57,-18.21,-31.82
2010-06-23 18:00,33.73,221.7,9.57,-22.46,-25.17
2010-06-23 19:00,24.93,227.7,9.45,-18.44,-16.77
2010-06-23 20:00,24.64,276.9,9.45,-24.46,2.98
2010-06-23 21:00,15.25,270.3,9.48,-15.25,0.07
2010-06-23 22:00,22.58,314.9,9.32,-15.99,15.95
2010-06-23 23:00,24.93,341.3,9.29,-8.00,23.61
2010-06-24 00:00,14.08,18.9,9.16,4.55,13.32
2010-06-24 01:00,6.75,220.7,9.10,-4.40,-5.12
2010-06-24 02:00,23.76,206.3,9.10,-10.51,-21.30
2010-06-24 03:00,39.01,198.9,9.10,-12.63,-36.91
2010-06-24 04:00,39.89,202.8,9.10,-15.43,-36.78
2010-06-24 05:00,39.30,202.4,9.19,-14.98,-36.34
2010-06-24 06:00,38.13,197.8,9.35,-11.68,-36.30
2010-06-24 07:00,26.10,213.7,9.54,-14.47,-21.73
2010-06-24 08:00,24.64,196.1,9.60,-6.82,-23.67
2010-06-24 09:00,12.32,199.6,9.57,-4.13,-11.61
2010-06-24 10:00,10.56,291.4,9.54,-9.83,3.85
2010-06-24 11:00,14.37,303.7,9.35,-11.96,7.97
2010-06-24 12:00,24.64,316.0,9.23,-17.12,17.71
2010-06-24 13:00,23.76,306.5,9.01,-19.10,14.12
2010-06-24 14:00,19.94,283.3,8.94,-19.41,4.58
2010-06-24 15:00,24.05,270.6,8.97,-24.05,0.26
2010-06-24 16:00,21.70,232.3,9.23,-17.17,-13.28
2010-06-24 17:00,20.82,225.3,9.29,-14.79,-14.66
2010-06-24 18:00,18.48,215.1,9.19,-10.61,-15.13
2010-06-24 19:00,16.13,218.2,8.75,-9.98,-12.67
2010-06-24 20:00,16.42,185.5,9.13,-1.58,-16.35
2010-06-24 21:00,9.68,160.2,9.29,3.28,-9.11
2010-06-24 22:00,6.16,99.4,9.54,6.08,-1.00
2010-06-24 23:00,5.28,135.6,9.73,3.69,-3.77
2010-06-25 00:00,7.33,171.1,9.86,1.13,-7.24
2010-06-25 01:00,14.66,189.0,9.82,-2.30,-14.48
2010-06-25 02:00,23.46,212.2,9.73,-12.52,-19.84
2010-06-25 03:00,43.12,220.7,9.67,-28.11,-32.69
2010-06-25 04:00,48.39,224.2,9.35,-33.74,-34.69
2010-06-25 05:00,46.63,214.7,9.76,-26.55,-38.34
2010-06-25 06:00,44.87,211.2,9.57,-23.24,-38.39
2010-06-25 07:00,35.78,225.6,9.73,-25.57,-25.03
2010-06-25 08:00,25.22,229.1,9.89,-19.07,-16.51
2010-06-25 09:00,13.20,231.6,9.82,-10.34,-8.20
2010-06-25 10:00,3.81,233.3,9.79,-3.06,-2.28
2010-06-25 11:00,8.80,5.5,9.60,0.84,8.76
2010-06-25 12:00,18.18,344.4,9.45,-4.89,17.52
2010-06-25 13:00,18.18,6.2,9.54,1.97,18.08
2010-06-25 14:00,7.04,80.7,10.01,6.95,1.13
2010-06-25 15:00,11.73,196.1,9.60,-3.25,-11.27
2010-06-25 16:00,22.00,202.8,9.76,-8.51,-20.29
2010-06-25 17:00,34.90,211.9,9.45,-18.44,-29.63
2010-06-25 18:00,30.21,208.4,9.19,-14.36,-26.58
2010-06-25 19:00,29.62,199.6,9.38,-9.93,-27.91
2010-06-25 20:00,26.69,200.6,9.82,-9.41,-24.98
2010-06-25 21:00,18.77,196.4,9.54,-5.31,-18.01
2010-06-25 22:00,12.32,231.6,9.98,-9.65,-7.65
2010-06-25 23:00,6.16,208.4,10.58,-2.93,-5.42
2010-06-26 00:00,9.68,318.1,9.64,-6.47,7.20
2010-06-26 01:00,8.51,77.2,10.64,8.30,1.88
2010-06-26 02:00,9.97,222.1,10.45,-6.68,-7.40
2010-06-26 03:00,17.01,198.2,10.48,-5.31,-16.16
2010-06-26 04:00,33.73,214.0,10.30,-18.86,-27.96
2010-06-26 05:00,35.78,216.8,9.76,-21.44,-28.65
2010-06-26 06:00,43.41,207.0,10.01,-19.69,-38.69
2010-06-26 07:00,33.73,218.9,9.51,-21.19,-26.24
2010-06-26 08:00,31.97,234.0,10.36,-25.88,-18.77
2010-06-26 09:00,14.96,242.5,10.30,-13.27,-6.91
2010-06-26 10:00,10.56,295.9,10.08,-9.50,4.62
2010-06-26 11:00,13.49,351.8,9.89,-1.93,13.35
2010-06-26 12:00,23.17,17.8,9.79,7.09,22.06
2010-06-26 13:00,29.04,11.8,9.60,5.95,28.42
2010-06-26 14:00,30.50,26.2,9.07,13.49,27.36
2010-06-26 15:00,21.70,40.0,9.07,13.94,16.64
2010-06-26 16:00,13.20,125.0,9.48,10.81,-7.58
2010-06-26 17:00,23.46,172.9,9.98,2.91,-23.28
2010-06-26 18:00,38.72,198.9,10.14,-12.53,-36.63
2010-06-26 19:00,41.94,193.6,10.52,-9.87,-40.76
2010-06-26 20:00,43.99,183.4,10.77,-2.62,-43.92
2010-06-26 21:00,39.30,199.2,10.55,-12.95,-37.11
2010-06-26 22:00,33.44,216.1,10.61,-19.71,-27.01
2010-06-26 23:00,9.39,237.6,9.70,-7.92,-5.03
2010-06-27 00:00,5.28,250.9,10.74,-4.99,-1.73
2010-06-27 01:00,9.09,345.8,10.64,-2.23,8.82
2010-06-27 02:00,10.85,0.2,10.26,0.04,10.85
2010-06-27 03:00,4.11,28.0,10.67,1.93,3.63
2010-06-27 04:00,12.61,190.8,10.77,-2.36,-12.39
2010-06-27 05:00,28.74,199.6,10.42,-9.64,-27.08
2010-06-27 06:00,34.90,204.2,9.89,-14.28,-31.85
2010-06-27 07:00,36.08,203.5,9.10,-14.36,-33.09
2010-06-27 08:00,31.97,210.5,9.98,-16.22,-27.55
2010-06-27 09:00,24.64,245.3,9.10,-22.38,-10.30
2010-06-27 10:00,14.37,205.9,9.60,-6.28,-12.93
2010-06-27 11:00,8.51,283.6,9.73,-8.27,2.00
2010-06-27 12:00,8.51,12.9,9.79,1.90,8.29
2010-06-27 13:00,19.36,15.4,9.70,5.12,18.67
2010-06-27 14:00,14.96,36.4,9.95,8.89,12.03
2010-06-27 15:00,6.16,10.8,9.98,1.15,6.05
2010-06-27 16:00,3.23,325.8,9.57,-1.81,2.67
2010-06-27 17:00,24.64,227.7,11.43,-18.23,-16.58
2010-06-27 18:00,31.38,223.5,10.08,-21.60,-22.77
2010-06-27 19:00,40.77,229.1,9.70,-30.83,-26.68
2010-06-27 20:00,38.13,222.8,9.04,-25.90,-27.98
2010-06-27 21:00,35.20,211.9,9.42,-18.60,-29.88
2010-06-27 22:00,31.97,207.3,9.64,-14.67,-28.40
2010-06-27 23:00,26.98,215.8,9.82,-15.77,-21.90
2010-06-28 00:00,30.21,274.8,11.55,-30.10,2.54
2010-06-28 01:00,28.74,282.9,10.36,-28.02,6.43
2010-06-28 02:00,14.37,274.8,9.60,-14.32,1.21
2010-06-28 03:00,14.37,247.4,9.86,-13.27,-5.52
2010-06-28 04:00,23.76,229.1,9.92,-17.96,-15.55
2010-06-28 05:00,38.42,206.3,10.04,-17.01,-34.45
2010-06-28 06:00,51.03,215.4,9.79,-29.57,-41.59
2010-06-28 07:00,55.14,217.2,9.60,-33.31,-43.94
2010-06-28 08:00,56.02,208.7,10.23,-26.93,-49.12
2010-06-28 09:00,56.90,209.1,10.61,-27.66,-49.73
2010-06-28 10:00,44.29,218.2,10.58,-27.40,-34.79
2010-06-28 11:00,36.96,237.6,10.42,-31.19,-19.82
2010-06-28 12:00,28.74,244.2,9.92,-25.89,-12.49
2010-06-28 13:00,35.49,294.5,9.82,-32.29,14.73
2010-06-28 14:00,32.26,325.5,9.54,-18.29,26.58
2010-06-28 15:00,31.68,352.8,9.48,-3.94,31.43
2010-06-28 16:00,8.51,358.5,9.54,-0.23,8.50
2010-06-28 17:00,6.75,152.8,9.82,3.08,-6.00
2010-06-28 18:00,29.62,192.9,9.67,-6.62,-28.87
2010-06-28 19:00,39.30,196.8,9.70,-11.34,-37.63
2010-06-28 20:00,52.50,193.3,9.48,-12.04,-51.10
2010-06-28 21:00,52.50,191.2,9.54,-10.15,-51.51
2010-06-28 22:00,54.55,195.4,9.60,-14.46,-52.60
2010-06-28 23:00,52.50,201.7,9.86,-19.41,-48.78
2010-06-29 00:00,37.84,211.9,9.89,-19.99,-32.12
2010-06-29 01:00,30.80,225.3,10.08,-21.87,-21.68
2010-06-29 02:00,34.61,245.6,9.86,-31.53,-14.27
2010-06-29 03:00,29.33,270.3,9.79,-29.33,0.13
2010-06-29 04:00,31.97,281.5,9.45,-31.33,6.38
2010-06-29 05:00,29.92,262.2,9.51,-29.64,-4.07
2010-06-29 06:00,34.32,247.1,9.48,-31.60,-13.38
2010-06-29 07:00,42.24,233.3,9.45,-33.88,-25.22
2010-06-29 08:00,41.36,223.5,9.35,-28.47,-30.00
2010-06-29 09:00,44.29,211.5,9.51,-23.17,-37.74
2010-06-29 10:00,31.97,230.2,9.45,-24.55,-20.47
2010-06-29 11:00,26.69,219.3,9.60,-16.90,-20.66
2010-06-29 12:00,14.37,223.8,9.67,-9.96,-10.36
2010-06-29 13:00,8.21,255.1,9.67,-7.94,-2.11
2010-06-29 14:00,4.11,281.9,9.60,-4.02,0.84
2010-06-29 15:00,6.16,208.4,9.67,-2.93,-5.42
2010-06-29 16:00,8.21,280.5,9.57,-8.08,1.49